• In Lithuania
  • List of Countries
  • For 7 days
  • Water Temperature
  • Satellite Maps
  • Weather Map
  • Weather Widgets
  • user-avatar
    Login

    Hourly Weather Voloshky

    Today, 15 August, Wednesday

    Time Temperature Precipitation Wind Pressure Humidity
    00:00 +21°C° 0.1 mm 3 mps 743 mmHg 84%
    01:00 +20°C° 0.1 mm 2 mps 743 mmHg 87%
    02:00 +18°C° 0 mm 2 mps 743 mmHg 88%
    03:00 +18°C° 0 mm 2 mps 743 mmHg 88%
    04:00 +18°C° 0 mm 2 mps 744 mmHg 89%
    05:00 +18°C° 0 mm 2 mps 744 mmHg 90%
    06:00 +19°C° 0 mm 2 mps 744 mmHg 86%
    07:00 +20°C° 0 mm 2 mps 744 mmHg 83%
    08:00 +21°C° 0 mm 2 mps 745 mmHg 80%
    09:00 +21°C° 0.1 mm 2 mps 745 mmHg 75%
    10:00 +22°C° 0.1 mm 3 mps 745 mmHg 71%
    11:00 +24°C° 0.1 mm 3 mps 745 mmHg 67%
    12:00 +24°C° 0 mm 3 mps 745 mmHg 64%
    13:00 +25°C° 0 mm 3 mps 745 mmHg 62%
    14:00 +25°C° 0 mm 3 mps 745 mmHg 59%
    15:00 +25°C° 0 mm 3 mps 746 mmHg 60%
    16:00 +25°C° 0 mm 2 mps 746 mmHg 62%
    17:00 +25°C° 0 mm 2 mps 746 mmHg 63%
    18:00 +23°C° 0 mm 2 mps 746 mmHg 68%
    19:00 +21°C° 0 mm 2 mps 746 mmHg 73%
    20:00 +20°C° 0 mm 2 mps 746 mmHg 78%
    21:00 +19°C° 0 mm 2 mps 746 mmHg 80%
    22:00 +19°C° 0 mm 2 mps 746 mmHg 82%
    23:00 +18°C° 0 mm 2 mps 746 mmHg 83%

    Tomorrow, 16 August, Thursday

    Time Temperature Precipitation Wind Pressure Humidity
    00:00 +18°C° 0 mm 2 mps 747 mmHg 86%
    01:00 +18°C° 0 mm 2 mps 747 mmHg 88%
    02:00 +17°C° 0 mm 2 mps 747 mmHg 90%
    03:00 +17°C° 0 mm 2 mps 747 mmHg 92%
    04:00 +17°C° 0 mm 2 mps 747 mmHg 93%
    05:00 +16°C° 0 mm 2 mps 747 mmHg 95%
    06:00 +18°C° 0 mm 2 mps 747 mmHg 90%
    07:00 +19°C° 0 mm 2 mps 748 mmHg 86%
    08:00 +20°C° 0 mm 2 mps 748 mmHg 81%
    09:00 +23°C° 0.1 mm 2 mps 748 mmHg 75%
    10:00 +24°C° 0.1 mm 2 mps 748 mmHg 68%
    11:00 +25°C° 0.1 mm 2 mps 748 mmHg 62%
    12:00 +26°C° 0.1 mm 2 mps 748 mmHg 59%
    13:00 +26°C° 0.1 mm 2 mps 748 mmHg 57%
    14:00 +27°C° 0.1 mm 3 mps 748 mmHg 54%
    15:00 +27°C° 0.2 mm 3 mps 748 mmHg 56%
    16:00 +27°C° 0.2 mm 3 mps 748 mmHg 57%
    17:00 +26°C° 0.2 mm 3 mps 748 mmHg 59%
    18:00 +25°C° 0 mm 2 mps 748 mmHg 65%
    19:00 +23°C° 0 mm 2 mps 748 mmHg 72%
    20:00 +20°C° 0 mm 2 mps 748 mmHg 78%
    21:00 +20°C° 0 mm 2 mps 748 mmHg 81%
    22:00 +19°C° 0 mm 2 mps 748 mmHg 84%
    23:00 +18°C° 0 mm 2 mps 748 mmHg 87%

    Day after tomorrow, 17 August, Friday

    Time Temperature Precipitation Wind Pressure Humidity
    00:00 +18°C° 0 mm 2 mps 748 mmHg 90%
    01:00 +17°C° 0 mm 2 mps 748 mmHg 92%
    02:00 +17°C° 0 mm 2 mps 748 mmHg 94%
    03:00 +17°C° 0 mm 2 mps 748 mmHg 95%
    04:00 +16°C° 0 mm 2 mps 748 mmHg 95%
    05:00 +16°C° 0 mm 2 mps 748 mmHg 96%
    06:00 +17°C° 0 mm 2 mps 748 mmHg 91%
    07:00 +19°C° 0 mm 2 mps 748 mmHg 86%
    08:00 +20°C° 0 mm 2 mps 748 mmHg 81%
    09:00 +23°C° 0.2 mm 2 mps 748 mmHg 75%
    10:00 +25°C° 0.2 mm 2 mps 748 mmHg 68%
    11:00 +26°C° 0.2 mm 2 mps 748 mmHg 62%
    12:00 +27°C° 0.5 mm 2 mps 748 mmHg 60%
    13:00 +27°C° 0.5 mm 2 mps 747 mmHg 58%
    14:00 +28°C° 0.5 mm 2 mps 747 mmHg 56%
    15:00 +28°C° 0.3 mm 2 mps 747 mmHg 57%
    16:00 +27°C° 0.3 mm 2 mps 747 mmHg 58%
    17:00 +27°C° 0.3 mm 2 mps 746 mmHg 58%
    18:00 +26°C° 0.1 mm 2 mps 746 mmHg 65%
    19:00 +24°C° 0.1 mm 2 mps 747 mmHg 71%
    20:00 +21°C° 0.1 mm 2 mps 747 mmHg 78%
    21:00 +20°C° 0 mm 2 mps 747 mmHg 80%
    22:00 +21°C° 0 mm 1 mps 747 mmHg 83%
    23:00 +20°C° 0 mm 1 mps 747 mmHg 86%

    18 August, Saturday

    Time Temperature Precipitation Wind Pressure Humidity
    00:00 +20°C° 0 mm 1 mps 747 mmHg 87%
    01:00 +19°C° 0 mm 1 mps 747 mmHg 89%
    02:00 +19°C° 0 mm 1 mps 747 mmHg 90%
    03:00 +19°C° 0 mm 1 mps 747 mmHg 91%
    04:00 +18°C° 0 mm 1 mps 747 mmHg 92%
    05:00 +18°C° 0 mm 1 mps 747 mmHg 92%
    06:00 +20°C° 0 mm 1 mps 747 mmHg 87%
    07:00 +21°C° 0 mm 1 mps 747 mmHg 81%
    08:00 +23°C° 0 mm 1 mps 748 mmHg 76%
    09:00 +24°C° 0 mm 1 mps 748 mmHg 69%
    10:00 +26°C° 0 mm 1 mps 748 mmHg 63%
    11:00 +28°C° 0 mm 1 mps 748 mmHg 56%
    12:00 +29°C° 0 mm 1 mps 747 mmHg 53%
    13:00 +28°C° 0 mm 0 mps 747 mmHg 50%
    14:00 +28°C° 0 mm 0 mps 747 mmHg 47%
    15:00 +28°C° 0.1 mm 0 mps 747 mmHg 48%
    16:00 +29°C° 0.1 mm 1 mps 747 mmHg 49%
    17:00 +29°C° 0.1 mm 1 mps 747 mmHg 50%
    18:00 +27°C° 0 mm 1 mps 747 mmHg 55%
    19:00 +26°C° 0 mm 1 mps 747 mmHg 60%
    20:00 +24°C° 0 mm 1 mps 747 mmHg 65%
    21:00 +23°C° 0 mm 1 mps 747 mmHg 68%
    22:00 +23°C° 0 mm 1 mps 747 mmHg 71%
    23:00 +22°C° 0 mm 1 mps 747 mmHg 74%

    19 August, Sunday

    Time Temperature Precipitation Wind Pressure Humidity
    00:00 +22°C° 0 mm 1 mps 748 mmHg 74%
    01:00 +22°C° 0 mm 1 mps 748 mmHg 74%
    02:00 +22°C° 0 mm 1 mps 748 mmHg 74%
    03:00 +22°C° 0 mm 1 mps 748 mmHg 74%
    04:00 +22°C° 0 mm 1 mps 748 mmHg 74%
    05:00 +19°C° 0 mm 0 mps 748 mmHg 74%
    06:00 +22°C° 0 mm 1 mps 748 mmHg 72%
    07:00 +23°C° 0 mm 1 mps 748 mmHg 70%
    08:00 +24°C° 0 mm 1 mps 748 mmHg 68%
    09:00 +26°C° 0.1 mm 1 mps 748 mmHg 62%
    10:00 +27°C° 0.1 mm 2 mps 749 mmHg 56%
    11:00 +28°C° 0.1 mm 2 mps 749 mmHg 50%
    12:00 +29°C° 0 mm 2 mps 749 mmHg 49%
    13:00 +29°C° 0 mm 3 mps 748 mmHg 48%
    14:00 +29°C° 0 mm 3 mps 748 mmHg 47%
    15:00 +28°C° 0.3 mm 3 mps 748 mmHg 53%
    16:00 +27°C° 0.3 mm 3 mps 748 mmHg 59%
    17:00 +26°C° 0.3 mm 3 mps 748 mmHg 65%
    18:00 +25°C° 0 mm 3 mps 749 mmHg 70%
    19:00 +23°C° 0 mm 2 mps 749 mmHg 75%
    20:00 +21°C° 0 mm 2 mps 749 mmHg 80%
    21:00 +20°C° 0 mm 2 mps 749 mmHg 81%
    22:00 +19°C° 0 mm 2 mps 749 mmHg 82%
    23:00 +20°C° 0 mm 1 mps 749 mmHg 83%

    20 August, Monday

    Time Temperature Precipitation Wind Pressure Humidity
    00:00 +19°C° 0 mm 1 mps 749 mmHg 83%
    01:00 +19°C° 0 mm 1 mps 749 mmHg 83%
    02:00 +18°C° 0 mm 1 mps 749 mmHg 83%
    03:00 +18°C° 0 mm 1 mps 750 mmHg 85%
    04:00 +18°C° 0 mm 1 mps 750 mmHg 86%
    05:00 +16°C° 0 mm 1 mps 750 mmHg 88%
    06:00 +19°C° 0 mm 1 mps 750 mmHg 83%
    07:00 +20°C° 0 mm 1 mps 750 mmHg 79%
    08:00 +21°C° 0 mm 1 mps 750 mmHg 75%
    09:00 +22°C° 0.1 mm 1 mps 750 mmHg 70%
    10:00 +24°C° 0.1 mm 1 mps 750 mmHg 65%
    11:00 +25°C° 0.1 mm 1 mps 750 mmHg 61%
    12:00 +25°C° 0.1 mm 2 mps 750 mmHg 61%
    13:00 +25°C° 0.1 mm 2 mps 750 mmHg 62%
    14:00 +25°C° 0.1 mm 2 mps 750 mmHg 62%
    15:00 +25°C° 0 mm 2 mps 750 mmHg 61%
    16:00 +25°C° 0 mm 2 mps 750 mmHg 61%
    17:00 +25°C° 0 mm 2 mps 749 mmHg 60%
    18:00 +24°C° 0 mm 1 mps 749 mmHg 66%
    19:00 +22°C° 0 mm 1 mps 749 mmHg 72%
    20:00 +21°C° 0 mm 1 mps 749 mmHg 77%
    21:00 +20°C° 0 mm 1 mps 749 mmHg 79%
    22:00 +20°C° 0 mm 1 mps 749 mmHg 81%
    23:00 +19°C° 0 mm 1 mps 749 mmHg 83%
    Show more